User: anonymous   Login
Location: Unspecified
(0.0000°N, 0.0000°E)
Time: 01:56:57
(UTC+00:00)
Language:

TBA - TO BE ASSIGNED - Orbit

View from above orbital plane
View from above orbital plane
View from above satellite
View from above satellite

Ground track
Ground track

The orbit is defined by the following mean orbital elements,

1 68459U          26145.30858700 +.00000000 +00000-0 +28643-3 0 00000
2 68459  97.4514 104.0102 0007426 131.8772 228.3097 15.17165907    03
Epoch (UTC): 25 May 2026 07:24:21
Eccentricity: 0.0007426
inclination: 97.4514°
perigee height: 509 km
apogee height: 520 km
right ascension of ascending node: 104.0102°
argument of perigee: 131.8772°
revolutions per day: 15.17165907
mean anomaly at epoch: 228.3097°

The dashed part of the orbit path shows where the satellite is in the earth's shadow,  

DLR